Appleton, MN

9:48 AM CDT on April 23, 2017 (GMT -0500)
Appleton Municipal

Weather History for KAQP - March, 2014

Change the Weather History Date:

Thursday, March 6, 2014

  Actual Average Record
Temperature  
Mean Temperature 24 °F -  
Max Temperature 35 °F 25 °F 71 °F (2017)
Min Temperature 14 °F 10 °F -7 °F (1997)
Degree Days  
Heating Degree Days 40    
Moisture  
Dew Point 22 °F    
Average Humidity 82    
Maximum Humidity 93    
Minimum Humidity 65    
Precipitation  
Precipitation 0.04 in - - ()
Sea Level Pressure  
Sea Level Pressure 29.89 in    
Wind  
Wind Speed 15 mph (SSE)    
Max Wind Speed 22 mph    
Max Gust Speed 30 mph    
Visibility 5 miles    
Events      
Averages and records for this station are not official NWS values.
T = Trace of Precipitation, MM = Missing Value Source: NWS Daily Summary

Daily Weather History Graph

Daily Weather History Graph

Search for Another Location

Airport or City:

Trip Planner

Search our weather history database for the weather conditions in past years. The results will help you decide how hot, cold, wet, or windy it might be!

Date:

Astronomy

Mar. 06, 2014 Rise Set
Actual Time 6:53 AM CST 6:18 PM CST
Civil Twilight 6:23 AM CST 6:47 PM CST
Nautical Twilight 5:49 AM CST 7:21 PM CST
Astronomical Twilight 5:15 AM CST 7:56 PM CST
Moon 9:45 AM CST (3/6) No Moon Set
Length of Visible Light 12h 23m
Length of Day
11h 25m
Waxing Crescent, 32% of the Moon is Illuminated
Mar 6
Waxing Crescent
Mar 8
First Quarter
Mar 16
Full
Mar 23
Last Quarter
Mar 30
New

Hourly Weather History & Observations

Time (CST) Temp. Windchill Dew Point Humidity Pressure Visibility Wind Dir Wind Speed Gust Speed Precip Events Conditions
12:13 AM 14.0 °F -1.4 °F 10.4 °F 86% 30.19 in 7.0 mi SSE 15.0 mph 21.9 mph N/A   Clear
12:33 AM 15.8 °F 1.4 °F 10.4 °F 79% 30.18 in 7.0 mi SSE 13.8 mph 18.4 mph N/A   Clear
12:53 AM 15.8 °F 1.4 °F 12.2 °F 86% 30.16 in 7.0 mi SSE 13.8 mph 20.7 mph N/A   Clear
1:13 AM 17.6 °F 3.7 °F 14.0 °F 86% 30.15 in 7.0 mi SSE 13.8 mph 19.6 mph N/A   Clear
1:33 AM 17.6 °F 3.7 °F 15.8 °F 93% 30.14 in 7.0 mi SSE 13.8 mph - N/A   Clear
1:54 AM 19.4 °F 5.0 °F 17.6 °F 93% 30.14 in 7.0 mi SSE 16.1 mph 20.7 mph N/A   Clear
2:13 AM 21.2 °F 7.3 °F 17.6 °F 86% 30.13 in 7.0 mi SSE 16.1 mph 21.9 mph N/A   Clear
2:33 AM 21.2 °F 7.3 °F 17.6 °F 86% 30.12 in 5.0 mi SSE 16.1 mph 24.2 mph N/A   Clear
2:54 AM 21.2 °F 7.3 °F 17.6 °F 86% 30.11 in 7.0 mi SSE 16.1 mph 21.9 mph N/A   Clear
3:13 AM 19.4 °F 5.0 °F 15.8 °F 86% 30.10 in 5.0 mi SSE 16.1 mph 23.0 mph N/A   Clear
3:33 AM 19.4 °F 4.5 °F 15.8 °F 86% 30.09 in 7.0 mi SSE 17.3 mph 24.2 mph N/A   Clear
3:53 AM 19.4 °F 4.5 °F 15.8 °F 86% 30.08 in 7.0 mi SSE 17.3 mph 24.2 mph N/A   Clear
4:13 AM 19.4 °F 5.5 °F 15.8 °F 86% 30.07 in 7.0 mi SSE 15.0 mph 25.3 mph N/A   Clear
4:33 AM 19.4 °F 5.0 °F 15.8 °F 86% 30.06 in 7.0 mi SSE 16.1 mph 21.9 mph N/A   Clear
4:53 AM 19.4 °F 5.0 °F 15.8 °F 86% 30.05 in 7.0 mi South 16.1 mph - N/A   Clear
5:13 AM 19.4 °F 5.5 °F 15.8 °F 86% 30.04 in 7.0 mi SSE 15.0 mph 21.9 mph N/A   Clear
5:33 AM 19.4 °F 4.1 °F 15.8 °F 86% 30.02 in 7.0 mi SSE 18.4 mph 24.2 mph N/A   Clear
5:53 AM 19.4 °F 5.0 °F 15.8 °F 86% 30.03 in 7.0 mi SSE 16.1 mph 23.0 mph N/A   Clear
6:13 AM 19.4 °F 5.0 °F 15.8 °F 86% 30.01 in 5.0 mi SSE 16.1 mph 23.0 mph N/A   Clear
6:33 AM 19.4 °F 5.5 °F 15.8 °F 86% 29.99 in 5.0 mi SSE 15.0 mph - N/A   Clear
6:53 AM 19.4 °F 5.0 °F 15.8 °F 86% 29.98 in 5.0 mi SSE 16.1 mph 24.2 mph N/A   Clear
7:14 AM 21.2 °F 7.8 °F 17.6 °F 86% 29.97 in 4.0 mi SSE 15.0 mph 26.5 mph N/A   Clear
7:33 AM 21.2 °F 6.8 °F 17.6 °F 86% 29.96 in 3.0 mi SSE 17.3 mph 23.0 mph N/A   Clear
7:53 AM 21.2 °F 6.4 °F 17.6 °F 86% 29.96 in 4.0 mi SSE 18.4 mph 25.3 mph N/A   Clear
8:13 AM 23.0 °F 10.6 °F 17.6 °F 80% 29.96 in 4.0 mi SSE 13.8 mph 19.6 mph N/A   Haze
8:33 AM 23.0 °F 10.6 °F 19.4 °F 86% 29.96 in 4.0 mi SSE 13.8 mph - N/A   Clear
8:53 AM 24.8 °F 12.4 °F 19.4 °F 80% 29.94 in 4.0 mi SSE 15.0 mph 21.9 mph N/A   Haze
9:13 AM 24.8 °F 10.7 °F 19.4 °F 80% 29.93 in 4.0 mi SSE 19.6 mph 24.2 mph N/A   Haze
9:34 AM 26.6 °F 12.7 °F 19.4 °F 74% 29.91 in 3.0 mi SSE 20.7 mph 26.5 mph N/A   Haze
9:53 AM 26.6 °F 12.7 °F 21.2 °F 80% 29.89 in 3.0 mi SSE 20.7 mph 29.9 mph N/A   Haze
10:13 AM 28.4 °F 14.7 °F 21.2 °F 74% 29.89 in 4.0 mi SSE 21.9 mph 29.9 mph N/A   Haze
10:33 AM 28.4 °F 15.4 °F 21.2 °F 74% 29.88 in 4.0 mi SSE 19.6 mph 29.9 mph N/A   Haze
10:53 AM 28.4 °F 15.4 °F 21.2 °F 74% 29.88 in 5.0 mi South 19.6 mph 27.6 mph N/A   Haze
11:14 AM 30.2 °F 18.9 °F 21.2 °F 69% 29.88 in 4.0 mi South 16.1 mph 21.9 mph N/A   Haze
11:33 AM 30.2 °F 19.3 °F 23.0 °F 75% 29.88 in 4.0 mi SSE 15.0 mph 21.9 mph N/A   Haze
11:54 AM 32.0 °F 20.8 °F 24.8 °F 75% 29.88 in 4.0 mi South 17.3 mph 24.2 mph N/A   Haze
12:13 PM 33.8 °F 22.5 °F 24.8 °F 70% 29.87 in 5.0 mi South 19.6 mph 24.2 mph N/A   Haze
12:33 PM 33.8 °F 23.2 °F 24.8 °F 70% 29.84 in 5.0 mi South 17.3 mph 25.3 mph N/A   Haze
12:53 PM 33.8 °F 23.2 °F 24.8 °F 70% 29.84 in 5.0 mi South 17.3 mph 24.2 mph 0.02 in   Haze
1:14 PM 35.6 °F 25.9 °F 24.8 °F 65% 29.83 in 4.0 mi South 16.1 mph 26.5 mph N/A   Haze
1:34 PM 33.8 °F 23.5 °F 24.8 °F 70% 29.83 in 5.0 mi South 16.1 mph 24.2 mph N/A   Haze
1:54 PM 35.6 °F 25.9 °F 26.6 °F 70% 29.82 in 4.0 mi South 16.1 mph 19.6 mph N/A   Haze
2:13 PM 35.6 °F 25.9 °F 26.6 °F 70% 29.81 in 4.0 mi South 16.1 mph 21.9 mph 0.01 in   Haze
2:34 PM 35.6 °F 27.5 °F 26.6 °F 70% 29.80 in 4.0 mi South 11.5 mph 20.7 mph 0.01 in   Haze
2:53 PM 33.8 °F 24.3 °F 26.6 °F 75% 29.79 in 4.0 mi South 13.8 mph 18.4 mph 0.02 in   Haze
3:13 PM 33.8 °F 22.8 °F 26.6 °F 75% 29.78 in 4.0 mi South 18.4 mph 24.2 mph N/A   Haze
3:33 PM 33.8 °F 22.8 °F 26.6 °F 75% 29.78 in 4.0 mi South 18.4 mph - N/A   Haze
3:53 PM 33.8 °F 25.3 °F 28.4 °F 81% 29.80 in 4.0 mi South 11.5 mph 18.4 mph N/A   Haze
4:13 PM 33.8 °F 23.9 °F 28.4 °F 81% 29.78 in 4.0 mi South 15.0 mph 19.6 mph N/A   Haze
4:33 PM 33.8 °F 25.3 °F 28.4 °F 81% 29.79 in 4.0 mi SSE 11.5 mph - N/A   Haze
4:53 PM 33.8 °F 24.3 °F 28.4 °F 81% 29.78 in 4.0 mi South 13.8 mph 17.3 mph N/A   Haze
5:13 PM 33.8 °F 25.3 °F 28.4 °F 81% 29.78 in 4.0 mi South 11.5 mph - N/A   Haze
5:33 PM 33.8 °F 25.8 °F 28.4 °F 81% 29.76 in 4.0 mi SSE 10.4 mph - N/A   Clear
5:54 PM 33.8 °F 25.3 °F 28.4 °F 81% 29.76 in 4.0 mi SSE 11.5 mph - N/A   Haze
6:13 PM 33.8 °F 25.8 °F 28.4 °F 81% 29.75 in 4.0 mi SSE 10.4 mph 18.4 mph N/A   Haze
6:33 PM 33.8 °F 24.8 °F 28.4 °F 81% 29.75 in 5.0 mi SSE 12.7 mph - N/A   Clear
6:53 PM 33.8 °F 23.9 °F 28.4 °F 81% 29.75 in 5.0 mi SSE 15.0 mph - N/A   Clear
7:13 PM 33.8 °F 25.8 °F 28.4 °F 81% 29.74 in 5.0 mi SSE 10.4 mph 19.6 mph N/A   Clear
7:33 PM 33.8 °F 26.4 °F 28.4 °F 81% 29.73 in 4.0 mi SSE 9.2 mph - N/A   Clear
7:53 PM 33.8 °F 25.3 °F 28.4 °F 81% 29.73 in 4.0 mi SSE 11.5 mph - N/A   Clear
8:13 PM 33.8 °F 24.8 °F 28.4 °F 81% 29.72 in 4.0 mi SSE 12.7 mph 17.3 mph N/A   Haze
8:33 PM 33.8 °F 25.3 °F 28.4 °F 81% 29.72 in 5.0 mi SE 11.5 mph - N/A   Haze
8:54 PM 32.0 °F 23.6 °F 28.4 °F 87% 29.73 in 5.0 mi SSE 10.4 mph - N/A   Clear
9:14 PM 32.0 °F 24.8 °F 28.4 °F 87% 29.73 in 5.0 mi SE 8.1 mph 19.6 mph N/A   Clear
9:34 PM 33.8 °F 26.4 °F 28.4 °F 81% 29.72 in 5.0 mi SE 9.2 mph - N/A   Haze
9:54 PM 33.8 °F 25.8 °F 28.4 °F 81% 29.72 in 5.0 mi SE 10.4 mph - N/A   Haze
10:13 PM 32.0 °F 24.8 °F 28.4 °F 87% 29.72 in 5.0 mi SE 8.1 mph - N/A   Scattered Clouds
10:33 PM 32.0 °F 24.8 °F 28.4 °F 87% 29.71 in 5.0 mi SE 8.1 mph - N/A   Mostly Cloudy
10:53 PM 30.2 °F 22.6 °F 28.4 °F 93% 29.71 in 4.0 mi SE 8.1 mph - N/A   Scattered Clouds
11:14 PM 30.2 °F 21.9 °F 28.4 °F 93% 29.70 in 4.0 mi SE 9.2 mph - N/A   Mostly Cloudy
11:34 PM 30.2 °F 23.4 °F 28.4 °F 93% 29.70 in 4.0 mi SE 6.9 mph - N/A   Mostly Cloudy
11:53 PM 30.2 °F 25.4 °F 28.4 °F 93% 29.70 in 4.0 mi SE 4.6 mph - N/A   Overcast